Showing default

HAWK-14B, 68436

Orbit data source: Space-Track

HAWK-14B, 68436 is a payload satellite owned by HawkEye 360 (US) in SSO that was launched on Mon, 30 Mar 2026 UTC via an FALCON 9 launch vehicle from the Air Force Western Test Range (AFWTR). Payload-class satellites include a variety of spacecraft equipped with specific instruments for various scientific and technological missions. These include communications satellites like Starlink; space stations such as the ISS; scientific satellites like the Hubble; Earth observation satellites from companies like Planet Labs, Umbra, and HawkEye 360; GPS; miniature CubeSats for education and research; and military/defense satellites.

Loading next visibility...
Identifier
68436, 2026-067W
Orbit
SSO
Country
Flag of USUS
Related business
Manufacturer
UTIAS-SFL
Mission
Operational spacecraft
Bus & Motor
HAWK2G, Unknown motor
Mass
31 kg wet, 30 kg dry
Launch date (UTC)
2026-03-30 (1 month ago)
Launch vehicle
FALCON 9
Launch site
Air Force Western Test Range (AFWTR)
Object type
Payload
Rocket body
Debris
Shape & HBR
Unknown shape, 14.5 m
Radar Cross Section
RCS unknown

Expand to show TLE details & history
Last TLE update: 16 hours ago

TLE from 16 hours ago
0 HAWK-14B
1 68436U 26067W   26126.88573684  .00003493  00000-0  17564-3 0  9999
2 68436  97.4526  85.9485 0002999 150.0900 210.0505 15.17890250  5674
Epoch: 2026-05-06T21:15Z
TLE epoch observation values (Epoch: 2026-05-06T21:15:27.662Z)
Latitude
-0.00012°
Longitude
-97.65655°
Altitude
517.093 km
Speed
7.604 km/s
True Right ascension
05h 43m 47s
True Declination
0° 00' 00"
Sunlit
Object was in daylight at epoch
Visualization orbit readout
Latitude
Unknown
Longitude
Unknown
Altitude
Unknown
Speed
Unknown
Apparent Right ascension
Unknown
Apparent Declination
Unknown
Sunlit
N/A
Visualization observer readout
Local Sidereal Time
21:01:31
Azimuth
Unknown
Elevation
Unknown
Doppler factor
Unknown
Orbital elements
Apogee altitude
511.254 km
Perigee altitude
507.123 km
Semi-major axis
6,887.326 km
Eccentricity
0.0003
Inclination
97.4526°
RAAN
85.9485°
Arg. of periapsis
150.09°
True anomaly
210.0333°
Mean anomaly
210.0505°
Eccentric anomaly
210.0419°
Mean motion
3.79723 °/min
Orbital period
94.81 mins
BSTAR
0.00017564
Loading maneuver chart data...
Computing Atmospheric mass density...
Loading historical data...
Loading historical data...
Loading historical data...
Loading historical data...
Loading historical data...
Loading historical data...
Loading historical data...

Documentation

Showing up to 5 results
|